Tyler, TX

12:57 AM CST on February 18, 2018 (GMT -0600)
Tyler Pounds

Weather History for KTYR - February, 2013

Change the Weather History Date:

Friday, February 15, 2013

  Actual Average Record
Temperature  
Mean Temperature 45 °F 51 °F  
Max Temperature 51 °F 61 °F 81 °F (1956)
Min Temperature 38 °F 41 °F 13 °F (1905)
Degree Days  
Heating Degree Days 20 15  
Month to date heating degree days 156 242  
Since 1 July heating degree days 1370 1720  
Cooling Degree Days 0 0  
Month to date cooling degree days 0 0  
Year to date cooling degree days 10 4  
Moisture  
Dew Point 31 °F    
Average Humidity 57    
Maximum Humidity 76    
Minimum Humidity 37    
Precipitation  
Precipitation T in 0.15 in 1.40 in (1987)
Month to date precipitation 1.17 2.00  
Year to date precipitation 4.91 5.06  
Snow  
Snow 0.00 in - - ()
Month to date snowfall 0.0  
Since 1 July snowfall 1.0  
Snow Depth 0.00 in    
Sea Level Pressure  
Sea Level Pressure 30.27 in    
Wind  
Wind Speed 8 mph (North)    
Max Wind Speed 17 mph    
Max Gust Speed 23 mph    
Visibility 10 miles    
Events Rain    
T = Trace of Precipitation, MM = Missing Value Source: NWS Daily Summary

Daily Weather History Graph

Daily Weather History Graph

Search for Another Location

Airport or City:

Trip Planner

Search our weather history database for the weather conditions in past years. The results will help you decide how hot, cold, wet, or windy it might be!

Date:

Astronomy

Feb. 15, 2013 Rise Set
Actual Time 7:03 AM CST 6:07 PM CST
Civil Twilight 6:38 AM CST 6:32 PM CST
Nautical Twilight 6:10 AM CST 7:01 PM CST
Astronomical Twilight 5:41 AM CST 7:30 PM CST
Moon 10:03 AM CST (2/15) 11:45 PM CST (2/15)
Length of Visible Light 11h 54m
Length of Day
11h 03m
Waxing Crescent, 30% of the Moon is Illuminated
Feb 15
Waxing Crescent
Feb 17
First Quarter
Feb 25
Full
Mar 4
Last Quarter
Mar 11
New

Hourly Weather History & Observations

Time (CST) Temp. Windchill Dew Point Humidity Pressure Visibility Wind Dir Wind Speed Gust Speed Precip Events Conditions
12:53 AM 46.0 °F 44.8 °F 32.0 °F 58% 30.11 in 10.0 mi SSE 3.5 mph - N/A   Clear
1:53 AM 44.1 °F - 37.0 °F 76% 30.13 in 10.0 mi Calm Calm - N/A   Mostly Cloudy
2:53 AM 43.0 °F - 36.0 °F 76% 30.14 in 10.0 mi Calm Calm - N/A   Partly Cloudy
3:53 AM 44.1 °F 42.5 °F 34.0 °F 68% 30.17 in 10.0 mi NNW 3.5 mph - N/A   Clear
4:53 AM 45.0 °F 40.6 °F 34.0 °F 65% 30.18 in 10.0 mi North 8.1 mph - N/A   Partly Cloudy
5:53 AM 45.0 °F 40.6 °F 34.0 °F 65% 30.21 in 10.0 mi NNE 8.1 mph - N/A   Partly Cloudy
6:53 AM 45.0 °F 40.6 °F 34.0 °F 65% 30.24 in 10.0 mi North 8.1 mph - N/A   Partly Cloudy
7:53 AM 46.9 °F - 34.0 °F 61% 30.26 in 10.0 mi North 8.1 mph - N/A   Overcast
8:53 AM 48.9 °F - 35.1 °F 59% 30.29 in 10.0 mi North 12.7 mph - N/A   Mostly Cloudy
9:53 AM 51.1 °F - 36.0 °F 56% 30.30 in 10.0 mi NNE 12.7 mph - 0.00 in   Overcast
10:53 AM 48.9 °F - 37.0 °F 64% 30.31 in 10.0 mi NNE 13.8 mph 19.6 mph 0.00 in   Overcast
11:53 AM 46.0 °F 40.6 °F 36.0 °F 68% 30.33 in 10.0 mi NNE 11.5 mph 19.6 mph N/A   Overcast
12:53 PM 46.9 °F - 36.0 °F 66% 30.32 in 10.0 mi NNE 12.7 mph - 0.00 in Rain Light Rain
1:53 PM 51.1 °F - 34.0 °F 52% 30.27 in 10.0 mi North 10.4 mph - 0.00 in   Overcast
2:53 PM 48.9 °F - 28.9 °F 46% 30.27 in 10.0 mi North 12.7 mph 19.6 mph N/A   Overcast
3:53 PM 48.0 °F - 28.0 °F 46% 30.27 in 10.0 mi North 9.2 mph - N/A   Overcast
4:53 PM 48.0 °F - 25.0 °F 41% 30.28 in 10.0 mi NNW 6.9 mph - N/A   Overcast
6:53 PM 46.9 °F - 21.0 °F 36% 30.30 in 10.0 mi North 13.8 mph - N/A   Overcast
7:53 PM 45.0 °F 40.6 °F 21.0 °F 39% 30.33 in 10.0 mi North 8.1 mph - N/A   Overcast
8:53 PM 44.1 °F 40.1 °F 23.0 °F 43% 30.35 in 10.0 mi NNW 6.9 mph - N/A   Scattered Clouds
9:53 PM 43.0 °F 40.3 °F 23.0 °F 45% 30.36 in 10.0 mi NNW 4.6 mph - N/A   Clear
10:53 PM 39.9 °F 35.1 °F 23.0 °F 51% 30.37 in 10.0 mi North 6.9 mph - N/A   Clear
11:53 PM 37.9 °F - 21.9 °F 53% 30.36 in 10.0 mi Calm Calm - N/A   Clear